Regional Weather Roundup
Issued by NWS

Home | Current Version | Previous Version | Graphics & Text | Print | Product List | Glossary On
Versions: 1 2 3 4 5 6 7 8 9 10 11 12 13 14 15 16 17 18 19 20 21 22 23 24 25 26 27 28 29 30 31 32 33 34 35 36 37 38 39 40 41 42 43 44 45 46 47 48 49 50
000
ASUS43 KDTX 170810
RWRMI
MICHIGAN HOURLY REGIONAL WEATHER ROUNDUP
NATIONAL WEATHER SERVICE DETROIT/PONTIAC MI
400 AM EDT WED SEP 17 2014

NOTE: "FAIR" INDICATES FEW OR NO CLOUDS BELOW 12,000 FEET WITH NO
SIGNIFICANT WEATHER AND/OR OBSTRUCTION TO VISIBILITY.

MIZ047>049-052>055-059>063-066>070-074>076-081>083-170900-
SOUTHEAST LOWER MICHIGAN

CITY           SKY/WX    TMP DP  RH WIND       PRES   REMARKS
ADRIAN         CLEAR     42  41  96 CALM      30.09S
ALMA           CLEAR     39  39  98 CALM      30.06F
ANN ARBOR      FOG       39  37  92 CALM      30.07S VSB 1
BAD AXE        CLEAR     39  39 100 CALM      30.05S
CARO             N/A     38  38  99 CALM      30.05S FOG
DETROIT CITY   CLEAR     51  44  77 CALM      30.07F
DETROIT        PTCLDY    47  44  90 W3        30.07F
FLINT          CLEAR     42  39  89 CALM      30.08S
GROSSE ILE     CLEAR     48  46  93 CALM      30.06S
HILLSDALE      FOG       37  37 100 CALM      30.07S VSB 3/4
HOWELL         CLEAR     42  41  95 CALM      30.06F

CITY           SKY/WX    TMP DP  RH WIND       PRES   REMARKS
JACKSON        CLEAR     39  37  92 CALM      30.07F
LAMBERTVILLE   CLEAR     45  43  93 CALM      30.08S
LANSING        CLEAR     42  39  89 CALM      30.07F
LAPEER         FAIR      39  39  98 CALM      30.06F
MASON          CLEAR     40  39  97 CALM      30.07F FOG
MONROE         CLEAR     45  43  93 CALM      30.06S
MT. CLEMENS    MOCLDY    48  43  83 W3        30.05F
PONTIAC        CLEAR     47  42  83 NW3       30.05F
PORT HOPE        N/A     49  43  80 SW5       30.01F
PORT HURON     PTCLDY    43  43 100 CALM      30.06S
TRI CITIES     CLEAR     45  42  89 SW5       30.06S
TROY           PTCLDY    50  44  79 CALM      30.08S
SAGINAW HB     CLEAR     43  43 100 SW5       30.05F
$$
MIZ043>046-050>051-056>058-064>065-071>073-077>080-170900-
SOUTHWEST LOWER MICHIGAN

CITY           SKY/WX    TMP DP  RH WIND       PRES   REMARKS
BATTLE CREEK   CLEAR     41  38  89 CALM      30.07F
BENTON HARBOR  CLEAR     39  39 100 CALM      30.07S
BIG RAPIDS     CLEAR     39  39 100 SW7       30.04F WCI  34
COLDWATER      CLEAR     42  41  97 CALM      30.08S
FREMONT        FAIR      39  39  99 CALM      30.05F FOG
HOLLAND        CLEAR     44  41  89 CALM      30.07F
GRAND RAPIDS   CLEAR     42  39  89 CALM      30.07F
IONIA          FAIR      44  41  92 SW3       30.06F
KALAMAZOO      PTCLDY    41  38  89 CALM      30.08S
LUDINGTON      CLEAR     40  40  97 CALM      30.04S
MARSHALL       FOG       36  36  99 CALM      30.07F VSB 3/4
MOUNT PLEASANT CLEAR     42  40  96 CALM      30.04F
MUSKEGON       CLEAR     43  40  89 CALM      30.06F
SOUTH HAVEN    CLEAR     42  41  98 CALM      30.07S
$$
MIZ016>042-170900-
NORTHERN LOWER MICHIGAN

CITY           SKY/WX    TMP DP  RH WIND       PRES   REMARKS
ALPENA         CLEAR     48  42  80 SW6       29.99F
BEAVER ISLAND  MOCLDY    49  49  99 CALM      29.97F FOG
BELLAIRE       CLEAR     48  47  95 SW3       30.01S
CADILLAC       CLEAR     40  40  99 CALM      30.03F
CHARLEVOIX     CLOUDY    58  52  80 W9        30.01S
FRANKFORT      CLEAR     57  48  72 CALM      30.01F
GAYLORD        CLEAR     44  42  93 SW7       30.00F
GRAYLING       CLEAR     46  43  91 W5        30.02F
HARBOR SPRINGS CLOUDY    54  49  82 SW7       29.98S
HOUGHTON LAKE  CLEAR     48  43  82 W7        30.03F
MANISTEE       CLEAR     39  36  87 E3        30.04F
OSCODA         CLOUDY    50  43  77 W5        30.00F
PELLSTON       PTCLDY    49  47  93 CALM      29.98F
ROGERS CITY    CLEAR     48  45  90 SW7       29.99F
TRAVERSE CITY  MOCLDY    52  46  80 VRB6      30.00F
$$
MIZ007>008-015-170900-
EASTERN UPPER MICHIGAN

CITY           SKY/WX    TMP DP  RH WIND       PRES   REMARKS
KINROSS        MOCLDY    46  45  93 CALM      29.97F
MACKINAC ISLAN PTCLDY    47  47  97 NE5       29.97F
NEWBERRY       MOCLDY    44  43  97 W5        29.96F
S. S. MARIE    PTCLDY    46  43  89 CALM      29.97S
MUNISING         N/A     44  40  85 S5        29.95F
$$
MIZ004>006-011>014-085-170900-
CENTRAL UPPER MICHIGAN

CITY           SKY/WX    TMP DP  RH WIND       PRES   REMARKS
MANISTIQUE     MOCLDY    42  41  97 CALM      29.96F
ESCANABA       CLOUDY    46  43  87 CALM      29.97F
MENOMINEE      CLEAR     48  43  81 W5        29.99S
SAWYER-GWINN   CLOUDY    46  44  91 S5        29.95F
$$
MIZ001>003-009>011-084-170900-
WESTERN UPPER MICHIGAN

CITY           SKY/WX    TMP DP  RH WIND       PRES   REMARKS
IRON MOUNTAIN  CLOUDY    50  43  77 CALM      29.96F
HOUGHTON       CLOUDY    47  44  90 SE3       29.93F
COPPER HARBOR    N/A     47  42  83 SW3       29.93F
IRONWOOD       MOCLDY    52  43  71 SW9       29.93S
$$

ABBREVIATIONS USED IN REMARKS
   TC - TEMPERATURE IN CELSIUS
  WCI - WIND CHILL INDEX
   HX - HEAT INDEX
  VSB - VISIBILITY



USA.gov is the U.S. government's official web portal to all federal, state and local government web resources and services.